Temperature
20 20 20 20 20 20 20 19 19 19 18 18 18 18 18 18 18 18 18 18 17 17 17 17 17 17 18 18 18 18 18 18 17 17 18 18 18 18 18 18 17 17 17
20 20 20 20 20 20 19 19 19 19 18 18 18 18 18 18 18 18 18 17 17 17 17 17 17 17 17 17 17 17 17 17 17 17 17 17 18 18 18 18 17 17 17
20 20 20 20 20 20 19 19 19 19 18 18 18 18 18 18 18 17 17 17 17 17 17 17 17 17 17 17 17 17 17 17 17 17 17 17 17 17 17 17 17 17 17
20 20 20 20 20 20 19 19 19 19 18 18 18 18 17 18 18 17 17 17 17 17 17 17 17 17 17 17 17 17 17 17 17 17 17 17 17 17 17 17 17 17 17
20 20 20 20 20 20 19 19 19 19 18 18 18 17 17 17 17 17 17 17 17 17 17 17 17 17 17 17 17 17 17 17 17 17 17 17 17 17 17 17 17 17 17
20 20 20 20 20 20 19 19 19 18 18 18 18 17 17 17 17 17 17 17 17 17 17 17 17 17 17 17 17 17 17 17 17 17 17 17 17 17 17 17 17 17 17
20 20 20 20 20 19 19 19 19 18 18 18 18 17 17 17 17 17 17 17 17 17 17 17 17 17 17 17 17 17 17 17 17 17 17 17 17 17 17 16 16 16 17
20 20 20 20 20 19 19 19 19 18 18 18 18 17 17 17 17 17 17 17 17 17 17 17 17 17 17 16 16 16 17 16 16 16 16 16 17 16 16 16 16 16 16
20 20 20 20 19 19 19 19 18 18 18 18 17 17 17 17 17 17 17 17 17 17 17 17 16 16 16 16 16 16 16 16 16 16 16 16 16 16 16 16 16 16 15
20 20 20 20 19 19 19 18 18 18 18 18 17 17 17 17 17 17 17 17 16 16 16 16 16 16 16 16 16 16 16 16 16 16 16 16 16 16 16 16 16 16 15
20 20 20 20 19 19 19 18 18 18 18 17 17 17 17 17 17 17 17 16 16 16 16 16 16 16 16 16 16 16 15 15 16 16 16 16 16 16 16 16 16 15 15
21 20 20 19 19 18 18 18 18 18 18 17 17 17 17 17 16 16 16 16 16 16 16 16 16 16 16 15 15 15 15 15 15 15 15 15 15 15 15 15 15 15 15
20 20 19 19 19 18 18 18 18 17 17 17 17 17 17 16 16 16 16 16 16 16 16 15 15 15 15 15 15 15 15 15 15 15 15 15 15 15 15 15 15 15 15
19 19 19 19 19 18 18 18 17 17 17 17 17 17 17 16 16 16 16 16 16 15 15 15 15 15 15 15 15 15 15 15 15 15 15 15 15 15 15 15 15 15 14
18 18 18 18 18 18 18 17 17 17 17 17 17 17 16 16 16 16 16 15 15 15 15 15 15 15 15 15 15 15 15 15 14 14 14 14 14 14 14 14 14 14 14
18 18 18 18 18 18 18 17 17 17 17 17 16 16 16 16 16 16 15 15 15 15 15 15 15 15 15 14 14 14 14 14 14 14 14 14 14 14 14 14 14 14 14
17 17 17 17 17 17 17 17 17 17 16 16 16 16 16 16 15 15 15 15 15 15 15 15 15 14 14 14 14 14 14 14 14 14 14 14 14 14 14 13 13 13 13
17 17 17 17 17 17 17 17 17 16 16 16 16 16 16 15 15 15 15 15 15 15 15 14 14 14 14 14 14 14 14 14 13 13 13 13 13 13 13 13 13 13 13
17 17 17 17 17 17 17 17 16 16 16 16 16 15 15 15 15 15 15 15 14 14 14 14 14 14 14 14 14 14 14 13 13 13 13 13 13 13 13 13 13 13 13
17 17 17 17 17 17 16 16 16 16 16 16 15 15 15 15 15 15 15 14 14 14 14 14 14 14 14 14 14 13 13 13 13 13 13 13 13 13 13 13 13 13 13
17 17 17 17 17 16 16 16 16 16 15 15 15 15 15 15 14 14 14 14 14 14 14 14 13 13 13 13 13 13 13 13 13 13 13 13 13 13 13 12 12 12 12
17 16 16 16 16 16 16 16 16 15 15 15 15 15 14 14 14 14 14 14 14 14 14 13 13 13 13 13 13 13 13 12 12 12 12 12 12 13 13 12 12 12 12
16 16 16 16 15 15 15 16 15 15 15 15 15 14 14 14 14 14 14 13 13 13 13 13 13 13 13 13 13 13 13 12 12 12 12 12 12 12 12 12 12 12 12
16 16 16 15 15 15 15 15 15 15 14 14 14 14 14 14 13 13 13 13 13 13 13 13 13 13 13 12 12 12 12 12 12 12 12 12 12 12 12 12 12 11 11
16 15 15 15 15 15 15 15 15 15 14 14 14 13 13 13 13 13 13 13 13 12 12 12 12 12 12 12 12 12 12 12 12 12 12 12 11 11 11 11 11 11 11
15 15 15 15 15 15 15 14 14 14 14 14 14 13 13 13 13 13 13 13 12 12 12 12 12 12 12 12 12 12 12 11 11 11 11 11 11 11 11 11 11 11 11
Wind_Speed
4 4 4 5 5 5 5 5 4 3 3 2 2 1 1 1 0 1 2 2 2 1 1 1 0 0 1 1 1 1 1 0 1 1 1 1 1 1 1 1 1 2 2
3 4 4 4 5 5 5 4 4 4 4 3 2 2 2 1 1 1 1 2 2 2 2 1 1 1 1 1 1 1 1 0 1 1 0 1 2 2 1 0 1 1 1
6 6 6 6 5 6 6 5 5 4 3 3 2 2 2 1 1 1 1 2 2 2 2 2 1 1 2 2 2 2 3 2 1 1 2 2 2 2 1 1 1 0 0
6 6 6 6 6 6 5 4 4 4 3 4 3 3 3 2 2 2 1 2 2 2 2 2 2 1 2 2 3 2 2 3 2 2 2 2 2 2 1 1 1 1 1
7 7 8 7 6 5 5 4 3 3 3 4 5 4 3 3 1 1 1 2 2 2 2 2 2 2 2 2 2 2 2 2 3 2 2 2 2 2 2 2 2 1 1
5 6 6 5 4 4 4 4 4 3 3 4 4 5 5 3 2 2 2 2 2 2 2 2 2 2 2 2 2 2 3 3 3 3 2 3 2 3 3 3 2 2 2
5 5 6 6 5 5 5 4 5 4 4 4 5 5 5 5 5 4 3 3 2 2 3 2 2 2 2 2 2 2 2 3 3 3 3 3 4 3 3 3 2 2 2
4 5 6 6 6 6 5 5 5 5 4 4 4 4 4 4 4 4 4 4 3 3 3 2 2 2 2 2 1 2 2 2 2 3 3 2 2 3 3 3 3 1 2
4 5 5 5 5 5 5 5 5 4 4 4 4 4 4 4 4 3 3 3 3 3 2 2 2 2 2 2 1 1 2 2 2 2 3 2 2 2 3 3 3 3 3
4 4 4 5 4 4 4 3 3 4 4 4 4 4 3 3 3 3 3 3 3 2 2 1 2 2 2 2 1 2 2 2 2 2 2 2 2 2 2 3 3 3 4
5 5 4 4 4 3 3 3 3 2 2 3 3 3 2 2 2 2 3 3 2 2 2 2 2 2 2 2 2 2 2 2 2 2 2 2 2 2 2 2 2 2 3
4 4 4 4 3 3 3 3 3 3 3 2 2 2 2 1 2 2 2 1 1 2 2 1 1 2 2 2 2 2 2 2 2 2 2 3 2 2 2 2 2 2 3
2 2 3 4 4 3 3 3 3 3 2 2 2 2 2 2 2 2 2 1 1 1 1 1 1 2 2 2 2 2 2 2 3 3 3 3 3 3 2 2 2 2 2
2 2 3 3 3 3 4 3 3 2 2 2 2 2 2 3 3 2 2 2 1 1 1 1 2 2 2 2 2 2 2 3 3 3 3 3 4 4 4 3 3 2 2
1 2 2 2 3 3 3 3 3 2 2 2 2 3 2 1 1 2 2 2 2 2 2 1 2 2 2 2 2 2 2 2 2 3 3 4 4 4 3 3 3 3 2
1 1 1 1 3 4 4 3 2 2 3 3 3 2 1 1 1 1 1 1 2 1 1 1 2 2 2 2 2 1 1 2 2 2 3 4 4 3 3 4 4 5 5
2 1 2 2 2 3 3 4 3 3 3 2 2 1 1 1 1 1 0 1 2 1 1 1 1 2 3 3 2 1 1 1 2 2 2 3 2 2 2 2 3 3 5
2 1 1 1 1 1 2 3 3 3 3 2 2 2 1 2 1 1 1 2 1 1 2 2 2 2 3 3 2 2 1 1 2 2 2 3 3 2 2 2 2 2 3
1 1 1 0 0 1 1 2 2 2 2 2 2 2 2 2 1 2 2 2 1 1 2 2 2 3 4 3 3 1 1 1 2 2 2 2 3 3 3 3 3 2 3
1 0 1 1 1 0 1 2 2 2 2 3 3 2 2 2 2 2 2 1 1 2 2 2 3 3 4 4 3 1 1 1 2 2 2 2 1 2 3 3 3 3 3
1 1 1 1 1 1 2 2 2 2 3 2 1 1 1 1 1 1 1 1 1 1 1 2 3 3 4 3 3 1 1 2 2 2 2 2 1 1 2 3 3 3 2
1 1 1 0 0 1 3 2 2 2 1 1 1 1 1 1 1 1 1 1 1 1 2 2 3 3 3 3 2 1 3 2 2 2 2 2 1 1 1 2 2 3 3
1 1 1 0 1 1 2 3 2 1 1 1 1 1 0 0 0 1 1 1 1 1 2 2 2 3 3 2 2 1 2 2 2 2 2 1 1 1 1 1 2 2 2
1 1 1 1 1 2 1 2 2 2 2 1 1 1 1 0 1 0 1 1 1 2 2 2 2 3 3 2 2 1 1 1 1 1 1 0 1 1 1 1 1 1 1
1 1 2 2 3 2 2 2 2 2 2 2 1 1 1 1 1 1 2 2 3 4 3 3 3 3 3 4 3 2 1 1 1 0 1 2 1 1 2 1 1 0 1
2 1 2 3 3 2 3 2 2 3 3 2 2 1 1 1 1 1 2 3 3 3 3 4 4 4 5 4 2 2 2 1 2 2 1 0 0 0 0 1 1 1 1
Wind_Direction
209 190 182 176 172 169 169 174 172 168 153 151 159 157 189 198 215 245 244 247 257 249 206 251 345 143 185 227 211 164 146 166 162 100 356 344 299 263 256 242 235 236 236
194 187 182 177 176 180 186 178 182 181 175 178 173 167 166 186 196 248 265 257 248 249 230 211 217 178 178 279 238 169 154 169 156 155 112 334 334 339 334 241 223 252 233
199 196 190 189 184 189 191 189 185 183 182 166 136 111 76 40 352 287 279 269 252 244 236 221 209 205 192 219 231 196 183 199 222 181 169 173 237 295 319 286 249 254 228
202 197 196 195 195 198 190 183 176 176 178 159 153 162 177 202 225 226 248 280 264 255 242 232 226 226 216 223 238 218 198 186 222 224 215 208 188 198 283 313 290 272 253
205 201 200 197 192 186 180 183 169 176 182 176 177 180 197 209 215 211 247 273 287 277 264 239 234 244 242 239 243 229 210 205 216 217 206 208 217 210 207 262 297 309 276
205 199 195 179 175 173 170 172 172 195 197 191 191 191 197 199 201 222 234 261 277 281 277 255 250 255 253 249 244 236 225 232 231 228 222 211 208 206 202 226 255 275 281
192 187 180 178 181 181 183 183 181 201 205 201 205 205 204 200 205 217 224 235 255 264 268 264 254 255 255 253 245 241 244 240 230 227 234 228 227 208 196 196 226 254 287
185 184 185 182 187 189 189 191 191 202 206 209 215 211 203 205 216 219 220 225 237 246 253 246 247 254 260 265 250 251 260 254 238 231 223 229 231 215 204 196 188 233 274
181 182 179 177 182 187 192 194 194 201 207 211 213 211 207 207 215 221 218 230 241 247 243 240 248 263 268 265 247 260 275 264 248 237 229 229 230 215 220 206 196 195 233
182 182 182 184 186 189 187 181 181 197 209 210 215 220 215 211 209 206 217 231 242 247 237 249 256 264 268 266 250 260 262 245 253 243 233 244 244 230 213 209 212 208 211
190 190 188 186 180 175 177 185 187 194 209 211 209 214 212 211 209 218 229 236 243 234 231 244 253 259 263 261 255 260 248 244 259 262 240 249 247 237 229 217 212 207 203
194 184 175 168 171 182 186 192 189 194 214 210 191 204 205 201 215 230 236 235 248 252 236 229 241 256 263 258 248 258 262 246 255 265 265 266 255 242 235 216 214 214 209
178 161 163 174 184 191 198 202 200 207 207 191 178 188 208 210 219 230 230 221 240 263 262 236 242 261 270 262 250 243 247 246 246 248 248 254 244 244 234 222 221 213 209
169 172 188 189 190 196 200 201 208 205 189 180 186 203 222 222 220 219 219 220 220 238 256 261 257 262 270 269 262 257 249 254 255 251 248 247 238 238 229 221 213 193 182
139 180 209 213 197 194 202 205 203 191 182 178 203 228 236 226 216 210 216 224 226 237 235 249 271 275 268 272 280 266 254 264 278 275 263 252 244 238 226 221 202 183 184
206 199 198 214 211 199 195 197 191 188 171 180 212 232 227 205 229 232 227 235 245 249 234 246 260 274 279 300 296 275 259 259 265 281 285 272 256 241 221 213 201 188 189
215 201 220 223 219 207 193 190 190 171 164 177 193 201 208 222 252 260 288 270 265 260 258 255 252 268 289 306 310 298 221 241 259 266 281 282 270 243 219 215 216 217 214
218 232 288 329 303 203 178 166 157 158 167 181 205 208 209 234 250 267 258 263 286 271 253 258 250 257 278 294 303 308 237 253 268 269 265 263 263 237 198 201 210 226 233
227 228 202 207 69 55 121 136 148 160 168 203 219 220 213 227 242 262 275 261 256 280 280 271 257 259 280 289 293 318 257 274 284 282 282 265 245 236 197 191 206 241 265
105 83 77 76 71 28 117 141 158 166 206 224 232 229 214 217 238 254 269 262 241 255 268 283 271 261 271 287 290 279 220 251 274 291 294 278 231 226 195 194 197 222 253
186 133 108 114 193 171 154 156 172 219 234 220 200 225 228 215 225 245 269 277 264 270 272 280 288 283 277 286 293 259 198 222 233 256 285 286 259 222 203 192 203 213 192
167 144 123 303 263 165 166 170 221 243 218 177 171 203 227 235 238 234 276 259 223 248 274 291 307 304 299 288 295 261 211 205 208 233 256 273 263 233 196 192 191 168 142
186 185 166 299 319 249 185 190 227 214 175 160 196 209 112 33 38 158 295 318 294 259 272 276 286 298 304 303 300 272 208 204 209 237 235 245 240 210 155 143 140 140 137
220 190 165 186 255 265 239 215 209 173 165 177 185 153 133 72 10 353 246 258 272 270 272 270 275 287 296 299 307 299 261 230 227 269 284 136 117 110 99 71 76 117 150
220 190 198 214 238 244 235 227 194 164 170 178 171 178 184 198 291 300 261 243 245 228 225 238 238 244 269 272 251 219 232 232 230 190 80 66 62 59 45 33 23 90 128
226 222 234 236 247 234 229 227 193 171 171 190 196 202 216 224 245 283 322 317 281 261 238 230 229 244 249 266 256 227 198 161 128 118 107 89 266 247 246 270 296 285 236
Height
1513 1514 1515 1517 1518 1519 1520 1520 1522 1523 1524 1525 1526 1527 1527 1528 1529 1530 1530 1530 1531 1531 1531 1531 1531 1531 1531 1531 1531 1532 1532 1532 1532 1533 1532 1532 1532 1532 1532 1532 1533 1533 1533
1511 1512 1514 1515 1516 1517 1518 1519 1520 1521 1522 1523 1525 1526 1526 1527 1528 1528 1528 1529 1529 1529 1529 1529 1529 1529 1530 1530 1530 1530 1530 1530 1531 1531 1531 1531 1532 1530 1530 1530 1531 1531 1531
1508 1509 1511 1512 1514 1515 1516 1517 1518 1520 1521 1523 1523 1524 1525 1525 1526 1526 1527 1527 1528 1528 1528 1528 1528 1528 1528 1528 1528 1528 1528 1528 1529 1530 1530 1530 1529 1529 1529 1529 1529 1529 1529
1506 1507 1508 1510 1511 1513 1515 1516 1517 1519 1520 1521 1521 1522 1522 1523 1523 1524 1525 1526 1526 1526 1526 1526 1526 1526 1526 1526 1526 1526 1526 1527 1527 1527 1528 1528 1528 1528 1527 1527 1527 1527 1527
1504 1504 1506 1508 1510 1511 1513 1514 1516 1517 1518 1519 1520 1520 1521 1521 1522 1523 1523 1523 1524 1524 1524 1523 1523 1523 1524 1524 1524 1524 1524 1524 1524 1524 1525 1525 1525 1525 1525 1524 1525 1525 1525
1501 1502 1504 1506 1508 1510 1511 1513 1514 1514 1516 1517 1517 1518 1518 1519 1519 1520 1520 1521 1521 1521 1521 1521 1521 1521 1521 1521 1521 1521 1521 1522 1521 1522 1521 1521 1522 1522 1522 1522 1522 1522 1523
1498 1499 1501 1503 1505 1507 1508 1510 1511 1512 1513 1514 1515 1515 1516 1517 1517 1517 1518 1518 1518 1519 1519 1519 1519 1519 1519 1519 1519 1519 1519 1519 1518 1518 1518 1518 1518 1519 1519 1519 1519 1519 1520
1496 1497 1499 1501 1503 1505 1506 1508 1508 1510 1511 1512 1513 1513 1514 1514 1515 1515 1516 1516 1516 1516 1516 1516 1516 1516 1516 1516 1516 1516 1516 1516 1516 1516 1516 1516 1515 1516 1516 1516 1517 1517 1517
1494 1496 1497 1499 1501 1503 1504 1505 1506 1508 1509 1510 1510 1511 1511 1512 1512 1513 1513 1513 1513 1514 1514 1514 1514 1513 1513 1513 1513 1513 1512 1513 1513 1513 1513 1512 1512 1513 1513 1513 1514 1515 1514
1494 1495 1496 1497 1499 1501 1502 1503 1505 1506 1507 1507 1508 1508 1509 1509 1510 1510 1510 1511 1511 1511 1511 1511 1511 1511 1510 1510 1510 1509 1509 1509 1509 1509 1509 1509 1509 1509 1510 1510 1510 1511 1511
1492 1493 1494 1496 1497 1499 1500 1501 1502 1503 1504 1505 1505 1506 1506 1507 1507 1508 1508 1508 1509 1509 1508 1508 1508 1508 1508 1507 1507 1506 1506 1506 1506 1506 1506 1506 1506 1506 1506 1507 1507 1507 1508
1491 1492 1493 1494 1495 1497 1498 1499 1500 1501 1502 1502 1503 1503 1504 1504 1505 1505 1505 1506 1506 1506 1506 1506 1505 1505 1505 1504 1504 1503 1503 1503 1503 1503 1503 1503 1503 1503 1503 1503 1504 1504 1504
1490 1491 1492 1493 1493 1495 1496 1497 1498 1499 1500 1500 1500 1501 1501 1502 1502 1502 1503 1503 1503 1503 1503 1503 1503 1503 1502 1502 1501 1501 1500 1500 1500 1499 1499 1499 1499 1499 1499 1500 1500 1501 1501
1489 1490 1490 1491 1492 1493 1494 1495 1496 1497 1498 1498 1498 1499 1499 1499 1499 1500 1500 1500 1500 1500 1500 1500 1500 1500 1499 1499 1498 1498 1497 1497 1497 1496 1496 1496 1496 1496 1496 1496 1497 1497 1498
1488 1488 1489 1489 1490 1491 1492 1493 1494 1495 1496 1497 1497 1497 1497 1497 1497 1497 1497 1497 1497 1497 1497 1497 1497 1497 1496 1496 1495 1495 1494 1494 1493 1493 1493 1493 1493 1493 1493 1493 1494 1494 1495
1486 1487 1487 1488 1488 1489 1490 1491 1492 1493 1494 1494 1495 1495 1495 1495 1495 1495 1495 1495 1495 1495 1494 1494 1494 1493 1493 1493 1493 1492 1492 1491 1490 1490 1489 1489 1489 1490 1490 1490 1491 1491 1492
1485 1485 1485 1486 1486 1487 1488 1489 1490 1491 1491 1492 1492 1492 1492 1492 1492 1493 1492 1492 1492 1492 1492 1491 1491 1491 1490 1490 1490 1489 1489 1488 1487 1487 1487 1486 1486 1486 1487 1487 1488 1489 1489
1483 1484 1485 1485 1485 1486 1487 1487 1489 1489 1489 1489 1489 1490 1490 1490 1490 1490 1490 1490 1490 1490 1490 1489 1489 1488 1488 1488 1487 1487 1486 1485 1485 1484 1484 1483 1483 1483 1484 1484 1485 1486 1486
1483 1483 1484 1484 1484 1485 1485 1486 1487 1487 1487 1487 1487 1488 1488 1488 1488 1488 1488 1488 1487 1487 1487 1487 1486 1485 1485 1485 1484 1484 1483 1482 1482 1481 1481 1480 1480 1480 1481 1481 1482 1483 1483
1482 1482 1482 1483 1483 1483 1484 1485 1485 1485 1485 1485 1485 1486 1486 1486 1486 1486 1486 1486 1485 1485 1485 1484 1484 1483 1482 1482 1482 1481 1480 1479 1479 1478 1478 1477 1477 1478 1478 1478 1479 1479 1480
1481 1481 1481 1481 1482 1482 1483 1482 1483 1483 1483 1483 1484 1484 1484 1484 1484 1484 1484 1483 1483 1482 1482 1482 1481 1480 1480 1479 1479 1478 1477 1477 1476 1476 1475 1475 1475 1475 1476 1476 1476 1477 1478
1479 1479 1479 1479 1480 1480 1481 1481 1481 1481 1482 1482 1481 1482 1482 1482 1482 1482 1481 1481 1480 1479 1478 1478 1478 1477 1477 1476 1476 1476 1475 1475 1474 1474 1474 1473 1473 1473 1473 1474 1474 1475 1476
1477 1477 1477 1477 1478 1479 1479 1479 1479 1480 1480 1480 1479 1479 1479 1480 1480 1479 1479 1478 1477 1476 1475 1474 1474 1474 1474 1474 1474 1473 1473 1473 1472 1472 1472 1472 1472 1472 1472 1472 1472 1473 1473
1475 1475 1476 1476 1476 1477 1477 1477 1478 1478 1479 1478 1478 1478 1478 1478 1477 1477 1476 1475 1474 1473 1472 1471 1471 1471 1471 1471 1471 1471 1471 1470 1470 1470 1470 1470 1470 1470 1470 1470 1470 1471 1471
1473 1473 1474 1474 1474 1475 1475 1476 1476 1477 1477 1477 1477 1477 1476 1476 1475 1474 1474 1472 1472 1471 1470 1469 1469 1468 1468 1468 1469 1469 1468 1468 1468 1468 1468 1468 1467 1467 1467 1468 1469 1469 1469
1471 1472 1472 1472 1473 1473 1473 1474 1474 1474 1474 1475 1475 1475 1474 1474 1473 1472 1472 1470 1469 1468 1467 1467 1467 1467 1467 1466 1466 1467 1466 1466 1466 1466 1465 1466 1465 1465 1465 1466 1467 1467 1467